Regional Weather Roundup
Issued by NWS

Home | Current Version | Previous Version | Graphics & Text | Print | Product List | Glossary On
Versions: 1 2 3 4 5 6 7 8 9 10 11 12 13 14 15 16 17 18 19 20 21 22 23 24 25 26 27 28 29 30 31 32 33 34 35 36 37 38 39 40 41 42 43 44 45 46 47 48 49 50
000
ASUS45 KBOI 181110
RWRID

IDAHO REGIONAL WEATHER ROUNDUP
NATIONAL WEATHER SERVICE BOISE ID
500 AM MDT WED OCT 18 2017

NOTE: "FAIR" INDICATES FEW OR NO CLOUDS BELOW 12000 FEET
WITH NO SIGNIFICANT WEATHER AND/OR OBSTRUCTIONS TO VISIBILITY

IDZ012-014-181200-
SOUTHWEST IDAHO


CITY           SKY/WX    TMP DP  RH WIND       PRES   REMARKS
BOISE          CLEAR     41  30  65 SE7       30.11F
CALDWELL       CLEAR     32  29  88 SE6       30.12F WCI  26
MOUNTAIN HOME  CLEAR     31  23  72 E5        30.13S WCI  27
$$

IDZ016-017-181200-
SOUTHCENTRAL IDAHO


CITY           SKY/WX    TMP DP  RH WIND       PRES   REMARKS
BURLEY         PTCLDY    40  22  48 SW6       30.14S
JEROME         PTCLDY    42  25  50 SE5       30.15S
TWIN FALLS     PTCLDY    49  21  33 S14       30.15R
$$

IDZ019>023-181200-
SOUTHEAST IDAHO


CITY           SKY/WX    TMP DP  RH WIND       PRES   REMARKS
IDAHO FALLS    CLOUDY    38  27  64 SW6       30.16R WCI  33
POCATELLO      CLOUDY    42  23  46 CALM      30.14F
REXBURG        CLOUDY    39  24  55 N7        30.16R WCI  34
$$

IDZ006-010-011-018-031-032-181200-
CENTRAL IDAHO MOUNTAINS


CITY           SKY/WX    TMP DP  RH WIND       PRES   REMARKS
MCCALL         PTCLDY    28  25  88 NE3       30.11F
HAILEY         CLEAR     37  23  56 NW8       30.18F WCI  31
STANLEY          N/A     30  22  72 S6        30.20F WCI  24
SALMON         CLEAR     28  24  85 CALM      30.08S
CHALLIS        CLEAR     34  23  64 NW5       30.12F WCI  30
$$

IDZ002-004-006-007-026-181200-
NORTHERN IDAHO


CITY           SKY/WX    TMP DP  RH WIND       PRES   REMARKS
LEWISTON       CLOUDY    50  39  66 SE5       30.05F
LOWELL           N/A     43  42  97 CALM      30.10S
COEUR D`ALENE  CLOUDY    44  29  55 CALM      30.06S
MULLAN PASS    CLOUDY    34  19  54 SW8       30.03F WCI  27
$$



USA.gov is the U.S. government's official web portal to all federal, state and local government web resources and services.